www.pogodaiklimat.ru

Погода и климат >> Архив погоды >> Испания >> Понтеведра


ПОГОДА в Понтеведре

  • Прогноз погоды в Понтеведре
  • Монитор погоды в Понтеведре

АРХИВ ПОГОДЫ в Понтеведре

Время (UTC), дата Ветер
(напр.,м/с)
 
Видим.   Явления Облачность Т
(С)
Тd
(С)
f
(%)
Тe
(С)
Тes
(С)
Комфортность P
(гПа)
Po
(гПа)
Тmin
(С)
Tmax
(С)
R
(мм)
R24
(мм)
S
(см)
13 13.07 З 2 20 км н/о +24.6 +18.3 68 +29 +29 душно 1014.3 1001.9
14 13.07 ЮЗ 3 16 км н/о +23.0 +17.9 73 +28 +28 душно 1013.5 1001.1
15 13.07 ЮЗ 2 5000 м в посл. час гроза {ливн. осадки} 10/8 750 м
[Cb cap Ac As]
+19.7 +18.0 90 +23 +24 комфорт 1015.7 1003.1 3
16 13.07 СЗ 3 6000 м дождь н/о +20.1 +18.4 90 +24 +24 комфорт 1015.8 1003.2 0.0
17 13.07 В 2 3300 м дождь н/о +19.7 +18.5 93 +23 +23 комфорт 1014.9 1002.3 3
18 13.07 С 2 3000 м слаб. дождь {гроза} 9/5 300 м
[Cu Sc Ac As Ci sp]
+20.4 +19.6 95 +25 +26 комфорт 1014.8 1002.2 +25.1 4
19 13.07 ЮЗ 3 10 км в посл. час дождь н/о +21.4 +19.1 87 +26 +26 душно 1013.6 1001.1 0.0
20 13.07 ЮЗ 2 6000 м н/о +19.2 +17.3 89 +22 +22 комфорт 1015.2 1002.6
21 13.07 СВ 1 4800 м н/о +18.3 +17.0 92 +20 +20 1016.0 1003.3 0.0
22 13.07 штиль 0 2700 м н/о +18.1 +16.9 93 +18 +18 1015.7 1003.0
23 13.07 СВ 1 4900 м н/о +18.3 +17.5 95 +20 +20 1016.2 1003.5
00 14.07 ЮВ 1 2200 м дымка н/о +17.6 +16.8 95 +19 +19 1015.8 1003.1
01 14.07 СВ 1 3300 м н/о +17.3 +16.7 96 +18 +18 1015.6 1002.9
02 14.07 СВ 2 3800 м н/о +16.6 +16.0 96 +17 +17 1015.2 1002.5
03 14.07 СВ 3 14 км н/о +16.1 +15.3 95 +16 +16 1014.8 1002.0
04 14.07 В 1 13 км н/о +15.9 +15.1 95 +17 +17 1014.8 1002.0
05 14.07 СЗ 1 14 км н/о +16.0 +15.4 96 +17 +17 1014.9 1002.1
06 14.07 СВ 3 2000 м туман на расстоянии 1/1 50 м
[St]
+15.5 +14.9 96 +15 +15 1014.9 1002.1 +15.4
07 14.07 СВ 2 20 км н/о +16.8 +15.8 94 +17 +17 1015.0 1002.3
08 14.07 С 1 20 км н/о +19.7 +16.7 83 +24 +24 комфорт 1015.2 1002.6
09 14.07 Ю 1 12 км 1/1 300 м
[Cu hum]
+21.2 +17.8 81 +25 +36 комфорт 1015.2 1002.7
10 14.07 ЮЗ 2 20 км н/о +22.7 +18.5 77 +28 +28 душно 1015.3 1002.8
11 14.07 З 2 20 км н/о +24.0 +18.6 72 +29 +29 душно 1015.1 1002.7
12 14.07 ЮЗ 3 6000 м туман на расстоянии 1/1 300 м
[Cu hum]
+24.0 +18.9 73 +29 +44 душно 1015.3 1002.9
13 14.07 ЮЗ 3 14 км н/о +22.8 +18.1 75 +28 +28 душно 1015.4 1002.9
14 14.07 ЮЗ 3 12 км н/о +22.2 +18.0 77 +27 +27 душно 1015.2 1002.7
15 14.07 ЮЗ 3 4000 м мгла 1/1 300 м
[Cu hum]
+22.5 +17.8 75 +28 +38 душно 1015.1 1002.6
16 14.07 ЮЗ 3 18 км н/о +23.4 +17.8 71 +29 +29 душно 1014.7 1002.3
17 14.07 ЮЗ 3 19 км н/о +23.2 +18.1 73 +29 +29 душно 1014.7 1002.3
18 14.07 ЮЗ 3 3000 м мгла ясно +22.9 +17.1 70 +28 +30 душно 1014.7 1002.2 +24.0
19 14.07 ЮЗ 2 20 км н/о +22.5 +17.4 73 +27 +27 душно 1014.8 1002.3
20 14.07 ЮЗ 1 18 км н/о +21.3 +17.1 77 +25 +25 комфорт 1014.7 1002.2
21 14.07 В 1 16 км н/о +19.5 +16.9 85 +23 +23 комфорт 1015.1 1002.5
22 14.07 СВ 2 17 км н/о +19.2 +17.0 87 +22 +22 комфорт 1015.1 1002.5
23 14.07 В 1 11 км н/о +18.4 +16.7 90 +21 +21 комфорт 1015.2 1002.5
00 15.07 ЮВ 1 8000 м н/о +17.7 +16.4 92 +19 +19 1015.2 1002.5
01 15.07 ЮВ 1 н/о н/о +17.5 +16.7 95 +19 +19 1015.0 1002.3
02 15.07 штиль 0 н/о н/о +16.8 +15.8 94 +17 +17 1014.5 1001.8
03 15.07 Ю 1 3600 м н/о +16.5 +15.9 96 +17 +17 1014.5 1001.8
04 15.07 ЮЗ 1 н/о н/о +16.4 +15.8 96 +18 +18 1014.5 1001.8
05 15.07 С 1 4800 м н/о +16.2 +15.6 96 +17 +17 1015.1 1002.3
06 15.07 СЗ 2 4000 м дымка 10/10 50 м
[St]
+16.5 +15.9 96 +17 +17 1015.7 1002.9 +16.2
07 15.07 СВ 2 3600 м н/о +16.8 +16.0 95 +17 +17 1015.6 1002.9
08 15.07 С 2 14 км в посл. час морось н/о +17.4 +16.3 93 +18 +18 1015.8 1003.1 0.0
09 15.07 СВ 1 8000 м дымка 9/8 50 м
[St Ci fib]
+19.3 +16.7 85 +22 +24 комфорт 1015.7 1003.1 0.0
10 15.07 СЗ 2 20 км н/о +21.8 +17.0 74 +26 +26 душно 1015.7 1003.2
11 15.07 З 3 20 км н/о +23.5 +17.3 68 +27 +27 душно 1015.5 1003.1
12 15.07 Ю 2 10 км 8/4 300 м
[Cu hum Ac trans Cc]
+25.0 +18.4 67 +30 +38 душно 1015.6 1003.2
13 15.07 ЮЗ 3 20 км н/о +25.6 +18.0 63 +30 +30 душно 1015.3 1002.9
14 15.07 ЮЗ 3 20 км н/о +25.8 +17.7 61 +30 +30 душно 1015.1 1002.8 0.0
15 15.07 ЮЗ 4 8000 м мгла 4/1 300 м
[Cu hum Ac trans Ci fib]
+25.8 +17.7 61 +30 +38 душно 1014.7 1002.4 0.0
16 15.07 ЮЗ 3 20 км н/о +27.4 +18.1 57 +32 +32 очень
душно
1014.4 1002.1
17 15.07 СЗ 5 20 км н/о +25.8 +18.2 63 +30 +30 душно 1014.2 1001.9
18 15.07 СЗ 5 6000 м мгла 3/0
[Cc]
+23.6 +17.8 70 +28 +29 душно 1014.5 1002.1 +27.5
19 15.07 СЗ 3 20 км н/о +23.2 +17.4 70 +29 +29 душно 1014.7 1002.3
20 15.07 С 3 20 км н/о +21.1 +16.9 77 +25 +25 комфорт 1015.2 1002.7
21 15.07 С 2 20 км н/о +19.8 +16.4 81 +23 +23 комфорт 1015.8 1003.2
22 15.07 С 2 20 км н/о +19.4 +16.1 81 +22 +22 комфорт 1016.1 1003.5
23 15.07 С 2 20 км н/о +18.9 +15.4 80 +21 +21 комфорт 1016.3 1003.6
00 16.07 С 3 20 км н/о +18.5 +15.0 80 +19 +19 1016.0 1003.3
01 16.07 С 2 20 км н/о +18.3 +14.6 79 +19 +19 1015.7 1003.0
02 16.07 С 2 20 км н/о +18.0 +14.3 79 +19 +19 1015.3 1002.6
03 16.07 С 3 20 км н/о +17.7 +14.0 79 +18 +18 1015.1 1002.4
04 16.07 СВ 3 20 км н/о +17.4 +13.7 79 +18 +18 1015.1 1002.4
05 16.07 СВ 1 20 км н/о +16.9 +13.4 80 +18 +18 1015.1 1002.4
06 16.07 СВ 3 10 км 1/1 50 м
[St Ci fib]
+17.1 +13.2 78 +17 +18 1015.0 1002.3 +16.6
07 16.07 С 3 20 км н/о +18.7 +13.1 70 +20 +20 1015.2 1002.5
08 16.07 С 4 20 км н/о +20.5 +12.7 61 +23 +23 комфорт 1015.0 1002.4
09 16.07 С 3 12 км 3/0
[Ci]
+22.6 +14.2 59 +26 +33 жарко 1014.8 1002.3
10 16.07 С 4 20 км н/о +24.1 +14.8 56 +27 +27 жарко 1014.4 1002.0
11 16.07 С 4 20 км н/о +26.0 +15.4 52 +29 +29 душно 1014.1 1001.8
12 16.07 С 4 12 км 8/0 2000 м
[Ac trans Ci sp]
+26.5 +15.8 52 +30 +41 душно 1013.7 1001.4
13 16.07 С 5 20 км н/о +28.1 +15.7 47 +31 +31 душно 1013.2 1001.0
14 16.07 СЗ 8 20 км н/о +27.9 +17.1 52 +32 +32 душно 1012.9 1000.7
15 16.07 С 3 10 км 8/0
[Ac trans Ci sp]
+26.1 +16.6 56 +30 +39 душно 1013.3 1001.0
16 16.07 С 3 20 км н/о +26.7 +16.6 54 +30 +30 душно 1013.0 1000.7
17 16.07 СЗ 4 20 км н/о +25.3 +17.0 60 +29 +29 душно 1013.1 1000.8
18 16.07 С 4 10 км 9/0 2000 м
[Ac As Ci sp]
+24.9 +16.9 61 +29 +30 душно 1013.2 1000.8 +29.3
19 16.07 СЗ 3 20 км н/о +24.1 +16.6 63 +28 +28 душно 1013.5 1001.1
20 16.07 СЗ 3 20 км н/о +22.0 +15.6 67 +26 +26 душно 1014.1 1001.6
21 16.07 С 3 20 км н/о +20.6 +14.7 69 +24 +24 комфорт 1014.5 1001.9
22 16.07 С 4 20 км н/о +19.9 +14.0 69 +22 +22 комфорт 1014.9 1002.3
23 16.07 С 3 20 км н/о +19.3 +13.7 70 +21 +21 комфорт 1015.2 1002.6
00 17.07 С 2 20 км н/о +18.6 +13.5 72 +20 +20 1015.5 1002.8
01 17.07 С 2 20 км н/о +18.1 +13.6 75 +19 +19 1015.4 1002.7
02 17.07 С 2 20 км н/о +17.2 +13.3 78 +18 +18 1015.2 1002.5
03 17.07 С 2 20 км н/о +17.3 +13.2 77 +18 +18 1015.0 1002.3
04 17.07 С 2 20 км н/о +17.3 +13.6 79 +18 +18 1015.1 1002.4
05 17.07 СЗ 1 20 км н/о +16.8 +13.5 81 +18 +18 1015.1 1002.4
06 17.07 С 2 10 км 1/1 100 м
[Sc]
+16.9 +14.0 83 +17 +18 1015.5 1002.8 +16.6
07 17.07 СЗ 3 20 км н/о +18.7 +14.6 77 +20 +20 1015.9 1003.2
08 17.07 С 3 20 км н/о +20.4 +14.7 70 +23 +23 комфорт 1016.0 1003.4
09 17.07 С 5 12 км 1/1 300 м
[Cu hum]
+21.8 +14.9 65 +25 +30 комфорт 1016.0 1003.5
10 17.07 С 4 20 км н/о +22.9 +15.0 61 +27 +27 душно 1016.3 1003.8
11 17.07 С 4 20 км н/о +23.9 +15.4 59 +27 +27 жарко 1016.8 1004.3
12 17.07 С 5 15 км 3/3 300 м
[Sc Ci fib]
+24.2 +14.9 56 +27 +35 жарко 1016.6 1004.2
13 17.07 С 4 20 км н/о +25.3 +15.0 53 +28 +28 жарко 1016.6 1004.2
14 17.07 С 5 20 км н/о +26.0 +15.4 52 +29 +29 душно 1016.5 1004.1
15 17.07 С 4 10 км 1/0
[Ac cuf Ci fib]
+26.4 +14.8 49 +29 +38 жарко 1016.2 1003.9
16 17.07 С 4 20 км н/о +26.6 +14.4 47 +29 +29 жарко 1016.0 1003.7
17 17.07 С 4 20 км н/о +26.4 +15.1 50 +29 +29 жарко 1015.9 1003.6
18 17.07 СЗ 6 10 км 3/0
[Ci fib]
+24.6 +15.0 55 +27 +28 жарко 1016.2 1003.8 +26.9
19 17.07 СЗ 5 20 км н/о +22.3 +14.2 60 +26 +26 жарко 1016.8 1004.3
20 17.07 СЗ 5 20 км н/о +20.2 +13.6 66 +22 +22 комфорт 1017.4 1004.8
21 17.07 С 2 20 км н/о +18.6 +13.5 72 +20 +20 1018.2 1005.5
22 17.07 С 2 20 км н/о +17.6 +13.3 76 +18 +18 1018.7 1005.9
23 17.07 СЗ 1 20 км н/о +16.5 +12.8 79 +17 +17 1018.7 1005.9
00 18.07 С 1 20 км н/о +15.7 +12.8 83 +17 +17 1019.1 1006.3
01 18.07 СВ 2 20 км н/о +15.0 +12.5 85 +15 +15 1019.1 1006.2
02 18.07 С 2 20 км н/о +14.6 +12.3 86 +15 +15 1018.7 1005.8
03 18.07 С 2 20 км н/о +14.2 +12.2 88 +14 +14 1018.5 1005.6
04 18.07 СЗ 1 20 км н/о +14.0 +11.9 87 +14 +14 1018.1 1005.2
05 18.07 СЗ 3 20 км слаб. морось н/о +13.8 +12.0 89 +13 +13 1018.4 1005.5 0.0
06 18.07 Ю 1 15 км ясно +13.4 +11.8 90 +13 +14 1018.8 1005.8 +13.3 0.0
07 18.07 З 1 20 км н/о +14.6 +12.3 86 +16 +16 1018.8 1005.9
08 18.07 СЗ 2 20 км н/о +17.7 +12.8 73 +18 +18 1018.9 1006.1
09 18.07 СЗ 3 20 км ясно +20.3 +13.3 64 +23 +30 комфорт 1018.4 1005.8 0.0
10 18.07 СЗ 4 20 км слаб. морось н/о +22.8 +13.0 54 +26 +26 жарко 1018.2 1005.7 0.0
11 18.07 СЗ 4 20 км слаб. морось н/о +24.7 +13.6 50 +27 +27 жарко 1017.8 1005.4 0.0
12 18.07 З 5 20 км 1/1 300 м
[Cu hum]
+26.1 +14.9 50 +29 +39 жарко 1017.4 1005.0 0.0
13 18.07 З 5 20 км слаб. морось н/о +27.2 +15.9 50 +30 +30 душно 1016.9 1004.6 0.0
14 18.07 З 3 20 км слаб. морось н/о +28.1 +17.3 52 +32 +32 душно 1016.5 1004.2 0.0
15 18.07 ЮЗ 3 20 км 1/1 300 м
[Cu hum]
+27.3 +18.0 57 +32 +43 очень
душно
1016.2 1003.9 0.0
16 18.07 ЮЗ 3 20 км слаб. морось н/о +26.8 +18.4 60 +32 +32 очень
душно
1015.8 1003.5 0.0
17 18.07 ЮЗ 3 20 км слаб. морось н/о +26.5 +18.1 60 +31 +31 душно 1015.5 1003.2 0.0
18 18.07 ЮЗ 2 20 км ясно +25.7 +17.9 62 +30 +33 душно 1015.3 1003.0 +28.4 0.0
19 18.07 ЮЗ 1 20 км в посл. час морось н/о +24.8 +17.5 64 +29 +29 душно 1015.6 1003.2 0.0
20 18.07 З 1 20 км н/о +23.4 +17.2 68 +29 +29 душно 1015.8 1003.3
21 18.07 С 2 20 км н/о +21.9 +16.6 72 +26 +26 душно 1016.1 1003.6 0.0
22 18.07 С 2 20 км н/о +20.4 +16.4 78 +24 +24 комфорт 1016.4 1003.8
23 18.07 С 1 20 км н/о +18.9 +15.8 82 +21 +21 комфорт 1016.4 1003.7
00 19.07 СЗ 1 20 км в посл. час морось н/о +18.1 +15.7 86 +20 +20 1016.3 1003.6 0.0
01 19.07 СЗ 1 20 км н/о +17.5 +15.5 88 +19 +19 1015.9 1003.2
02 19.07 СЗ 1 20 км н/о +17.3 +15.5 89 +19 +19 1015.5 1002.8
03 19.07 В 1 18 км н/о +16.6 +15.3 92 +17 +17 1014.9 1002.2
04 19.07 СВ 1 19 км н/о +16.6 +15.1 91 +17 +17 1014.5 1001.8
05 19.07 СВ 1 20 км н/о +16.1 +14.6 91 +17 +17 1014.6 1001.8
06 19.07 В 1 20 км ясно +15.8 +14.0 89 +16 +17 1014.5 1001.7 +15.8
07 19.07 С 1 20 км н/о +17.0 +14.3 84 +18 +18 1014.6 1001.9
08 19.07 Ю 1 20 км ясно +19.2 +15.1 77 +22 +29 комфорт 1014.6 1002.0
09 19.07 ЮЗ 1 20 км ясно +21.5 +15.3 68 +25 +36 комфорт 1014.6 1002.1
10 19.07 ЮЗ 1 20 км н/о +23.3 +16.3 65 +28 +28 душно 1014.5 1002.1
11 19.07 ЮЗ 2 20 км н/о +25.2 +16.9 60 +29 +29 душно 1014.3 1001.9
12 19.07 ЮЗ 3 20 км ясно +24.6 +16.6 61 +28 +45 душно 1014.4 1002.0
13 19.07 ЮЗ 4 20 км н/о +23.5 +16.0 63 +27 +27 душно 1014.2 1001.8
14 19.07 ЮЗ 4 20 км слаб. морось н/о +23.8 +16.1 62 +27 +27 жарко 1014.1 1001.7 0.0
15 19.07 ЮЗ 4 20 км 1/1 300 м
[Cu med, cong]
+23.5 +16.0 63 +27 +36 душно 1014.0 1001.6 0.0
16 19.07 ЮЗ 3 20 км н/о +23.4 +16.4 65 +28 +28 душно 1013.8 1001.4
17 19.07 ЮЗ 3 20 км н/о +23.8 +16.6 64 +27 +27 жарко 1013.7 1001.3
18 19.07 ЮЗ 3 15 км 1/0
[Ci sp]
+24.0 +17.0 65 +28 +30 душно 1013.7 1001.3 +25.4
19 19.07 ЮЗ 3 20 км н/о +22.9 +16.4 67 +28 +28 душно 1014.1 1001.6
20 19.07 ЮЗ 3 20 км н/о +19.0 +15.7 81 +21 +21 комфорт 1014.6 1002.0
21 19.07 Ю 2 19 км н/о +16.9 +15.4 91 +17 +17 1015.3 1002.6
22 19.07 ЮЗ 1 400 м н/о +16.2 +15.6 96 +17 +17 1015.8 1003.0
23 19.07 ЮЗ 1 1000 м н/о +16.5 +16.0 97 +18 +18 1016.0 1003.2
00 20.07 СВ 2 4800 м н/о +16.7 +15.9 95 +17 +17 1015.8 1003.1
01 20.07 В 2 4900 м н/о +16.4 +15.8 96 +17 +17 1015.8 1003.0
02 20.07 С 1 11 км н/о +16.6 +15.8 95 +17 +17 1015.8 1003.0
03 20.07 СВ 2 н/о н/о +16.4 +15.6 95 +16 +16 1015.9 1003.1
05 20.07 СВ 2 6000 м н/о +16.4 +15.8 96 +17 +17 1016.1 1003.3
06 20.07 СВ 3 5000 м дымка 9/9 300 м
[Sc]
+16.5 +15.7 95 +16 +16 1016.1 1003.3 +16.1
07 20.07 В 2 20 км н/о +17.4 +15.9 91 +18 +18 1016.7 1004.0
08 20.07 ЮЗ 1 н/о слаб. морось н/о +18.4 +16.7 90 +21 +21 комфорт 1017.1 1004.4 0.0
09 20.07 З 1 3000 м слаб. морось 10/10 200 м
[Frnb]
+18.6 +17.3 92 +21 +21 комфорт 1017.3 1004.6 0.0
10 20.07 ЮЗ 2 20 км в посл. час морось н/о +19.9 +17.5 86 +23 +23 комфорт 1017.4 1004.8 0.0
11 20.07 ЮЗ 2 20 км н/о +22.6 +17.3 72 +27 +27 душно 1017.3 1004.8
12 20.07 ЮЗ 4 20 км {морось} 4/3 300 м
[Cu med, cong Ci sp]
+22.9 +17.8 73 +28 +38 душно 1017.5 1005.0 0.0

 

Местоположение метеостанции Понтеведра (Испания): широта 42.43 долгота -8.62 высота над уровнем моря 108 м.

В архиве по умолчанию представлена погода в Понтеведре за последнюю неделю. Архивные данные за месяц целиком и за предыдущие месяцы, начиная с января 2011 года, Вы можете получить, выбрав интересующий диапазон дат из раскрывающегося списка и нажав кнопку "Ввод!".


*Определитесь, кто Вы:
робот инопланетянин человек

Внимание! Время в таблицах - всемирное. Для получения местного времени необходимо прибавить поправку, которая равна 1 ч.

Смотрите также архив погоды в соседних городах и на ближайших метеорологических станциях:

Погода в Виго (Испания) (22 км)
Погода в Падроне (Испания) (34 км)
Погода в Карбальино (Испания) (44 км)
Погода в Сантьяго-де-Компостеле (Испания) (50 км)
Погода в Сантьяго (Испания) (55 км)
Погода в Оренсе (Испания) (63 км)
Погода в Фистерре (Испания) (77 км)
Погода в Хинсо-де-Лимии (Испания) (83 км)
Погода в Виана-ду-Каштелу (Португалия) (90 км)
Погода на Кабо Вилан (Испания) (94 км)

Пояснения к столбцам:

Ветер - указаны скорость ветра в м/с - средняя за 10 мин, порывы в срок и между сроками (в фигурных скобках) и направление, откуда дует ветер: С - северный, СВ - северо-восточный, В - восточный, ЮВ - юго-восточный, Ю - южный, ЮЗ - юго-западный, З - западный, СЗ - северо-западный.
Видимость - горизонтальная дальность видимости в метрах или километрах. При видимости от 1 до 10 км при отсутствии осадков обычно наблюдается дымка, при ухудшении видимости до 1 км и менее - туман. В сухую погоду видимость может ухудшаться дымом, пылью или мглою.
Явления - указаны атмосферные явления, наблюдавшиеся в срок или в последний час перед сроком; фигурными скобками обозначены явления, наблюдавшиеся между сроками (за 1-3 часа до срока); квадратными скобками обозначены град или гололедные отложения с указанием их диаметра в мм.
Облачность - указаны через наклонную черту общая и нижняя облачность в баллах и высота нижней границы облаков в метрах; квадратными скобками обозначены формы облаков: Ci - перистые, Cs - перисто-слоистые, Cc - перисто-кучевые, Ac - высококучевые, As - высокослоистые, Sc - слоисто-кучевые, Ns - слоисто-дождевые, Cu - кучевые, Cb - кучево-дождевые. Подробнее классификацию облаков см. в Атласе облаков (PDF).
T - Температура воздуха - температура, измеренная на высоте 2 м над землей.
Td - Температура точки росы - температура, при понижении до которой содержащийся в воздухе водяной пар достигнет насыщения.
f - Относительная влажность воздуха - влажноcть воздуха, измеренная на высоте 2 м над землей.
Te - Эффективная температура - температура, которую ощущает одетый по сезону человек в тени. Характеристика душности погоды. При расчете учитывается влияние влажности воздуха и скорости ветра на теплоощущения человека.
Tes - Эффективная температура на солнце - температура, которую ощущает человек, с поправкой на солнечный нагрев. Характеристика знойности погоды. Зависит от высоты солнца над горизонтом, облачности и скорости ветра. Ночью, в пасмурную погоду, а также при ветре 12 м/с и более поправка равна нулю.
P - Атмосферное давление - приведенное к уровню моря атмосферное давление.
Po - Атмосферное давление - измеренное на уровне метеостанции атмосферное давление.
Tmin - Минимальная температура - минимум температуры воздуха на высоте 2 м над землей.
Tmax - Максимальная температура - максимум температуры воздуха на высоте 2 м над землей.
R - Количество осадков - Количество выпавших осадков за период времени, мм. При наведении курсора мыши на число - период времени, за который выпало указанное количество осадков.
R24 - Количество осадков - Количество выпавших осадков за 24 часа, мм.
S - Снежный покров - Высота снежного покрова, см. При наведении курсора мыши на число - состояние снежного покрова и степень покрытия местности в баллах.